Location: *
(32.3758°S, 63.1185°E)
Time: 17:26:42
(UTC+00:00)

SeaSat 1 - Pass Details

Date: 02 June 2023
Orbit: 742 x 744 km, 108.0° (Epoch: 23 September)

Event Time Altitude Azimuth Distance (km) Brightness Sun altitude
Exits shadow 14:56:38 73° 23° (NNE) 788 2.4 -26.2°
Drops below altitude 10° 15:01:12 10° 340° (NNW) 2,256 5.3 -27.1°
Sets 15:03:26 0° 338° (NNW) 3,172 6.1 -27.6°
